www.pogodaiklimat.ru

Погода и климат >> Архив погоды >> Пакистан >> Lahore City


ПОГОДА в Lahore City

  • Прогноз погоды в Lahore City
  • Монитор погоды в Lahore City
  • Климат города

АРХИВ ПОГОДЫ в Lahore City

Время (UTC), дата Ветер
(напр.,м/с)
 
Видим.   Явления Облачность Т
(С)
Тd
(С)
f
(%)
Тe
(С)
Тes
(С)
Комфортность P
(гПа)
Po
(гПа)
Тmin
(С)
Tmax
(С)
R
(мм)
R24
(мм)
S
(см)
18 12.07 штиль 0 4000 м дым 3/3 300 м
[Sc]
+30.0 +27.3 85 +48 +48 опасность
перегрева
995.0 971.5
21 12.07 ЮВ 1 2000 м дым ясно +28.5 +25.0 81 +41 +41 опасность
перегрева
994.7 966.3
00 13.07 штиль 0 2000 м дым ясно +29.0 +26.2 85 +44 +44 опасность
перегрева
994.8 971.2
03 13.07 В 2 4000 м дым 6/3 1260 м
[Sc Ac trans]
+30.5 +27.8 86 +50 +54 опасность
перегрева
996.4 972.9 +24.0
06 13.07 ЮВ 1 4000 м в посл. час гроза {дождь} 6/4 300 м
[Sc Ac trans]
+26.0 +24.6 92 +37 +48 очень
душно
999.4 975.5 9
09 13.07 СВ 2 4000 м {гроза, дождь} 4/0
[Ci fib]
+30.5 +24.1 69 +42 +58 опасность
перегрева
998.0 998.0
12 13.07 СВ 2 4000 м {гроза, дождь} ясно +32.0 +25.0 67 +46 +49 опасность
перегрева
995.4 972.0 +32.2
15 13.07 штиль 0 4000 м дым 3/0
[Ci fib]
+30.5 +24.9 72 +44 +44 опасность
перегрева
995.4 964.0
18 13.07 штиль 0 4000 м дым 3/0
[Ac trans]
+30.0 +25.1 75 +43 +43 опасность
перегрева
997.2 973.5
21 13.07 штиль 0 4000 м дым 6/4 300 м
[Sc Ac trans]
+29.0 +25.5 81 +43 +43 опасность
перегрева
996.7 1000.0
00 14.07 штиль 0 2000 м дым ясно +28.5 +25.7 85 +42 +42 опасность
перегрева
997.2 991.3
03 14.07 штиль 0 2000 м дым 6/3 300 м
[Sc Ac As]
+29.0 +25.5 81 +43 +47 опасность
перегрева
997.5 973.8 +25.1
06 14.07 СВ 1 4000 м дым ясно +33.0 +24.6 61 +46 +69 опасность
перегрева
997.5 974.1
09 14.07 СВ 2 4000 м дым 4/4 1200 м
[Sc]
+35.0 +25.3 57 +49 +59 опасность
перегрева
996.1 996.0
12 14.07 штиль 0 4000 м дым 3/3 300 м
[Sc]
+35.0 +25.3 57 +49 +52 опасность
перегрева
993.4 970.2 +36.1
15 14.07 штиль 0 4000 м дым ясно +34.0 +25.7 62 +49 +49 опасность
перегрева
992.8 961.9
18 14.07 штиль 0 4000 м дым ясно +32.5 +25.5 67 +47 +47 опасность
перегрева
995.1 971.7
21 14.07 штиль 0 4000 м дым ясно +31.5 +26.0 73 +47 +47 опасность
перегрева
995.2 1000.0
00 15.07 ЮВ 3 2000 м дым 4/0
[Ac trans]
+30.0 +25.8 78 +45 +45 опасность
перегрева
995.8 992.1
03 15.07 ЮВ 1 4000 м дым 5/4 300 м
[Sc Ac trans]
+30.0 +25.8 78 +45 +50 опасность
перегрева
998.3 974.6 +28.3
06 15.07 С 1 4000 м дым 5/3 1200 м
[Cu med, cong Ac trans]
+33.0 +26.1 67 +49 +63 опасность
перегрева
997.3 973.9
09 15.07 ЮВ 1 4000 м дым 4/4 1000 м
[Cu med, cong]
+35.0 +25.3 57 +49 +62 опасность
перегрева
995.8 1000.0
12 15.07 С 1 4000 м дым 3/3 300 м
[Cu med, cong]
+35.0 +25.3 57 +49 +52 опасность
перегрева
993.7 1009.0 +36.1
15 15.07 штиль 0 4000 м дым 3/3 300 м
[Sc]
+33.5 +25.9 65 +49 +49 опасность
перегрева
993.8 1000.0
18 15.07 штиль 0 4000 м дым ясно +32.5 +26.3 70 +49 +49 опасность
перегрева
995.7 972.3
21 15.07 штиль 0 4000 м дым ясно +31.5 +26.7 76 +49 +49 опасность
перегрева
996.0 967.5
00 16.07 штиль 0 4000 м дым ясно +30.5 +27.1 82 +48 +48 опасность
перегрева
995.8 972.3
03 16.07 ЮВ 1 4000 м дым 3/0
[Ac trans]
+31.5 +27.4 79 +50 +57 опасность
перегрева
997.2 973.6 +29.1
06 16.07 ЮВ 2 4000 м дым 8/8 300 м
[Cu Sc]
+34.5 +27.7 68 +54 +59 опасность
перегрева
997.6 974.3
09 16.07 СВ 1 4000 м дым {морось} 4/0
[Ac trans]
+33.5 +25.9 65 +49 +65 опасность
перегрева
996.7 1000.0 0.0
12 16.07 СВ 2 4000 м дым 4/0
[Ac trans]
+34.5 +26.3 62 +51 +53 опасность
перегрева
994.0 1008.9 +35.0
15 16.07 ЮВ 1 4000 м дым 6/4 300 м
[Sc Ac As]
+32.0 +25.8 70 +47 +47 опасность
перегрева
994.1 1000.0
18 16.07 ЮВ 2 4000 м дым 5/3 1200 м
[Sc Ac trans]
+32.0 +26.9 74 +49 +49 опасность
перегрева
996.1 972.7
21 16.07 штиль 0 4000 м дым ясно +31.5 +26.7 76 +49 +49 опасность
перегрева
996.0 968.6
00 17.07 ЮВ 1 4000 м дым 5/4 300 м
[Sc Ac trans]
+29.0 +26.2 85 +44 +44 опасность
перегрева
997.6 973.9
03 17.07 штиль 0 4000 м дым 6/4 300 м
[Sc As trans]
+30.0 +25.8 78 +45 +49 опасность
перегрева
998.2 974.5 +28.5
06 17.07 В 1 4000 м дым 8/5 1000 м
[Sc As trans]
+32.0 +26.5 73 +49 +57 опасность
перегрева
998.9 975.4
09 17.07 ЮВ 1 4000 м дым 8/6 300 м
[Cu Sc As trans]
+34.0 +25.7 62 +49 +55 опасность
перегрева
997.6 1000.0
12 17.07 штиль 0 4000 м в посл. час дождь 6/4 300 м
[Sc Ac trans]
+32.5 +27.8 76 +52 +55 опасность
перегрева
995.7 1008.3 +34.5 0.4
15 17.07 штиль 0 4000 м дым 9/5 300 м
[Sc As trans]
+33.0 +26.1 67 +49 +49 опасность
перегрева
995.6 1000.0
18 17.07 СЗ 1 4000 м в посл. час дождь 8/5 300 м
[Sc Ac As]
+31.0 +26.9 79 +48 +48 опасность
перегрева
998.3 974.7 0.4
21 17.07 штиль 0 4000 м дым ясно +29.5 +25.3 78 +43 +43 опасность
перегрева
998.7 969.9
00 18.07 штиль 0 4000 м дым 1/0
[Ac trans]
+29.5 +26.0 81 +44 +44 опасность
перегрева
997.7 974.0
03 18.07 штиль 0 4000 м дым 3/1 300 м
[Sc Ac trans]
+31.0 +26.9 79 +48 +56 опасность
перегрева
998.7 975.1 +28.5
06 18.07 штиль 0 4000 м дым 9/5 300 м
[Sc Ac As]
+34.0 +26.5 65 +51 +57 опасность
перегрева
999.4 976.0
09 18.07 штиль 0 4000 м дым 6/4 300 м
[Sc Ac trans]
+35.0 +26.1 60 +51 +62 опасность
перегрева
998.6 1000.0 0.6
12 18.07 СВ 3 4000 м дым {дождь} 9/5 1200 м
[Sc Ac As]
+32.5 +24.8 64 +46 +46 опасность
перегрева
996.6 1006.3 +37.0
15 18.07 В 1 4000 м дым {морось} 3/0
[Ac trans]
+32.0 +26.5 73 +49 +49 опасность
перегрева
996.8 997.0 0.0
18 18.07 штиль 0 4000 м дым 6/4 300 м
[Sc Ac trans]
+31.0 +26.1 75 +46 +46 опасность
перегрева
998.2 974.5
21 18.07 штиль 0 4000 м дым 6/4 300 м
[Sc Ac trans]
+30.0 +26.6 82 +46 +46 опасность
перегрева
997.5 970.5
00 19.07 штиль 0 4000 м дым 6/3 300 м
[Sc Ac As]
+29.0 +26.2 85 +44 +44 опасность
перегрева
998.0 974.3
03 19.07 штиль 0 4000 м дым ясно +29.5 +26.0 81 +44 +54 опасность
перегрева
998.8 975.1 +27.7
06 19.07 штиль 0 4000 м дым 8/5
[Sc Ac trans]
+34.0 +27.2 68 +53 +61 опасность
перегрева
999.4 976.0
09 19.07 ЮЗ 1 4000 м гроза без осадков {дождь} 9/4 300 м
[Cb cap Ac As]
+26.0 +24.6 92 +37 +42 очень
душно
998.4 1000.0 38
12 19.07 штиль 0 4000 м дым {снег} 5/5 300 м
[Sc]
+29.5 +26.0 81 +44 +47 опасность
перегрева
995.7 972.1 +35.1

 

Местоположение метеостанции Lahore City (Пакистан): широта 31.55 долгота 74.33 высота над уровнем моря 215 м.

В архиве по умолчанию представлена погода в Lahore City за последнюю неделю. Архивные данные за месяц целиком и за предыдущие месяцы, начиная с января 2011 года, Вы можете получить, выбрав интересующий диапазон дат из раскрывающегося списка и нажав кнопку "Ввод!".


*Определитесь, кто Вы:
робот инопланетянин человек

Внимание! Время в таблицах - всемирное. Для получения местного времени необходимо прибавить поправку, которая в Lahore City равна 5 ч.

Смотрите также архив погоды в соседних городах и на ближайших метеорологических станциях:

Погода в Amritsar (Punjab, Индия) (52 км)
Погода в Sialkot (Пакистан) (107 км)
Погода в Faisal Abad (Пакистан) (117 км)
Погода в Jammu (Jammu and Kashmir, Индия) (133 км)
Погода в Jhelum (Пакистан) (164 км)
Погода в Sargodha (Пакистан) (166 км)
Погода в Katra (Jammu and Kashmir, Индия) (170 км)
Погода в Ludhiana (Punjab, Индия) (170 км)
Погода в Una (Himachal Pradesh, Индия) (184 км)
Погода в Sri Ganganagar (Rajasthan, Индия) (185 км)

Пояснения к столбцам:

Ветер - указаны скорость ветра в м/с - средняя за 10 мин, порывы в срок и между сроками (в фигурных скобках) и направление, откуда дует ветер: С - северный, СВ - северо-восточный, В - восточный, ЮВ - юго-восточный, Ю - южный, ЮЗ - юго-западный, З - западный, СЗ - северо-западный.
Видимость - горизонтальная дальность видимости в метрах или километрах. При видимости от 1 до 10 км при отсутствии осадков обычно наблюдается дымка, при ухудшении видимости до 1 км и менее - туман. В сухую погоду видимость может ухудшаться дымом, пылью или мглою.
Явления - указаны атмосферные явления, наблюдавшиеся в срок или в последний час перед сроком; фигурными скобками обозначены явления, наблюдавшиеся между сроками (за 1-3 часа до срока); квадратными скобками обозначены град или гололедные отложения с указанием их диаметра в мм.
Облачность - указаны через наклонную черту общая и нижняя облачность в баллах и высота нижней границы облаков в метрах; квадратными скобками обозначены формы облаков: Ci - перистые, Cs - перисто-слоистые, Cc - перисто-кучевые, Ac - высококучевые, As - высокослоистые, Sc - слоисто-кучевые, Ns - слоисто-дождевые, Cu - кучевые, Cb - кучево-дождевые. Подробнее классификацию облаков см. в Атласе облаков (PDF).
T - Температура воздуха - температура, измеренная на высоте 2 м над землей.
Td - Температура точки росы - температура, при понижении до которой содержащийся в воздухе водяной пар достигнет насыщения.
f - Относительная влажность воздуха - влажноcть воздуха, измеренная на высоте 2 м над землей.
Te - Эффективная температура - температура, которую ощущает одетый по сезону человек в тени. Характеристика душности погоды. При расчете учитывается влияние влажности воздуха и скорости ветра на теплоощущения человека.
Tes - Эффективная температура на солнце - температура, которую ощущает человек, с поправкой на солнечный нагрев. Характеристика знойности погоды. Зависит от высоты солнца над горизонтом, облачности и скорости ветра. Ночью, в пасмурную погоду, а также при ветре 12 м/с и более поправка равна нулю.
P - Атмосферное давление - приведенное к уровню моря атмосферное давление.
Po - Атмосферное давление - измеренное на уровне метеостанции атмосферное давление.
Tmin - Минимальная температура - минимум температуры воздуха на высоте 2 м над землей.
Tmax - Максимальная температура - максимум температуры воздуха на высоте 2 м над землей.
R - Количество осадков - Количество выпавших осадков за период времени, мм. При наведении курсора мыши на число - период времени, за который выпало указанное количество осадков.
R24 - Количество осадков - Количество выпавших осадков за 24 часа, мм.
S - Снежный покров - Высота снежного покрова, см. При наведении курсора мыши на число - состояние снежного покрова и степень покрытия местности в баллах.